| time (UTC) | temp F | wind direction | speed knots | gust knots | rain 1hr in | rain 24hr in | rain mn in | humidity % | barometer mb |
| 20260507130140 | 65 | 222 | 36.5 | 0.0 | 0.00 | 0.00 | 0.00 | 1002.3 | |
| 20260507124326 | 63 | 315 | 56.5 | 0.0 | 0.00 | 0.00 | 0.00 | 1002.1 | |
| 20260507122509 | 65 | 0 | 87.8 | 0.0 | 0.00 | 0.00 | 0.00 | 1005.8 | |
| 20260507120652 | 69 | 0 | 47.8 | 0.0 | 0.00 | 0.00 | 0.00 | 1005.6 | |
| 20260507114836 | 67 | 180 | 96.5 | 0.0 | 0.00 | 0.00 | 0.00 | 1005.6 | |
| 20260507113019 | 66 | 270 | 53.0 | 0.0 | 0.00 | 0.00 | 0.00 | 1005.7 | |
| 20260507111203 | 64 | 0 | 84.3 | 0.0 | 0.00 | 0.00 | 0.00 | 1005.6 | |
| 20260507105346 | 65 | 270 | 35.6 | 0.0 | 0.00 | 0.00 | 0.00 | 1005.6 | |
| 20260507103530 | 66 | 315 | 17.4 | 0.0 | 0.00 | 0.00 | 0.00 | 1005.3 | |
| 20260507101713 | 68 | 270 | 81.7 | 0.0 | 0.00 | 0.00 | 0.00 | 1005.4 | |
| 20260507095858 | 63 | 270 | 27.8 | 0.0 | 0.00 | 0.00 | 0.00 | 1001.5 | |
| 20260507094042 | 63 | 222 | 10.4 | 0.0 | 0.00 | 0.00 | 0.00 | 1067.6 | |
| 20260507092227 | 62 | 222 | 23.5 | 0.0 | 0.00 | 0.00 | 0.00 | 1071.6 | |
| 20260507090412 | 61 | 135 | 48.7 | 0.0 | 0.00 | 0.00 | 0.00 | 1001.5 | |
| 20260507084556 | 61 | 222 | 55.6 | 0.0 | 0.00 | 0.00 | 0.00 | 1001.3 | |
| 20260507082739 | 60 | 222 | 81.7 | 0.0 | 0.00 | 0.00 | 0.00 | 1004.9 | |
| 20260507080923 | 61 | 0 | 49.5 | 0.0 | 0.00 | 0.00 | 0.00 | 1004.7 | |
| 20260507075106 | 60 | 0 | 10.4 | 0.0 | 0.00 | 0.00 | 0.00 | 1004.5 | |
| 20260507073254 | 61 | 270 | 38.2 | 0.0 | 0.00 | 0.00 | 0.00 | 1000.6 | |
| 20260507071449 | 60 | 222 | 69.5 | 0.0 | 0.00 | 0.00 | 0.00 | 1000.3 | |
| 20260507065644 | 58 | 180 | 55.6 | 0.0 | 0.00 | 0.00 | 0.00 | 1000.1 | |
| 20260507063839 | 58 | 0 | 60.8 | 0.0 | 0.00 | 0.00 | 0.00 | 999.9 | |
| 20260507062036 | 57 | 0 | 46.9 | 0.0 | 0.00 | 0.00 | 0.00 | 999.8 | |
| 20260507060231 | 56 | 315 | 34.8 | 0.0 | 0.00 | 0.00 | 0.00 | 999.6 | |
| 20260507054427 | 56 | 270 | 60.8 | 0.0 | 0.00 | 0.00 | 0.00 | 999.3 | |
| 20260507052624 | 56 | 0 | 27.8 | 0.0 | 0.00 | 0.00 | 0.00 | 999.0 | |
| 20260507050811 | 56 | 222 | 33.9 | 0.0 | 0.00 | 0.00 | 0.00 | 1082.8 | |
| 20260507045007 | 55 | 270 | 48.7 | 0.0 | 0.00 | 0.00 | 0.00 | 998.7 | |
| 20260507043156 | 55 | 0 | 16.5 | 0.0 | 0.00 | 0.00 | 0.00 | 998.4 | |
| 20260507041353 | 55 | 0 | 33.9 | 0.0 | 0.00 | 0.00 | 0.00 | 998.3 | |
| 20260507035549 | 54 | 315 | 22.6 | 0.0 | 0.00 | 0.00 | 0.00 | 998.2 | |
| 20260507033746 | 55 | 270 | 11.3 | 0.0 | 0.00 | 0.00 | 0.00 | 998.1 | |
| 20260507031934 | 55 | 0 | 15.6 | 0.0 | 0.00 | 0.00 | 0.00 | 1082.4 | |
| 20260507030119 | 55 | 270 | 26.9 | 0.0 | 0.00 | 0.00 | 0.00 | 1002.4 | |
| 20260507024302 | 55 | 222 | 65.2 | 0.0 | 0.00 | 0.00 | 0.00 | 1002.3 | |
| 20260507022446 | 54 | 0 | 0.0 | 0.0 | 0.00 | 0.00 | 0.00 | 1002.4 | |
| 20260507020629 | 53 | 180 | 0.0 | 0.0 | 0.00 | 0.00 | 0.00 | 1002.2 | |
| 20260507014813 | 52 | 222 | 5.2 | 0.0 | 0.00 | 0.00 | 0.00 | 1002.3 | |
| 20260507011140 | 52 | 180 | 0.0 | 0.0 | 0.00 | 0.00 | 0.00 | 1001.9 | |
| 20260507005324 | 53 | 222 | 6.1 | 0.0 | 0.00 | 0.00 | 0.00 | 1001.7 | |
| 20260507003508 | 55 | 0 | 21.7 | 0.0 | 0.00 | 0.00 | 0.00 | 1001.4 | |
| 20260507001651 | 56 | 270 | 17.4 | 0.0 | 0.00 | 0.00 | 0.00 | 1001.5 | |
| 20260506235835 | 56 | 270 | 28.7 | 0.0 | 0.00 | 0.00 | 0.00 | 1001.8 | |
| 20260506234018 | 57 | 0 | 0.0 | 0.0 | 0.00 | 0.00 | 0.00 | 1001.4 | |
| 20260506232201 | 57 | 222 | 11.3 | 0.0 | 0.00 | 0.00 | 0.00 | 1001.1 | |
| 20260506230345 | 57 | 222 | 10.4 | 0.0 | 0.00 | 0.00 | 0.00 | 1000.8 | |
| 20260506224528 | 57 | 0 | 0.0 | 0.0 | 0.00 | 0.00 | 0.00 | 1000.9 | |
| 20260506222712 | 57 | 222 | 11.3 | 0.0 | 0.00 | 0.00 | 0.00 | 1000.9 | |
| 20260506220855 | 57 | 270 | 19.1 | 0.0 | 0.00 | 0.00 | 0.00 | 1001.2 | |
| 20260506215040 | 57 | 270 | 0.0 | 0.0 | 0.00 | 0.00 | 0.00 | 1001.0 | |
| 20260506213223 | 57 | 0 | 21.7 | 0.0 | 0.00 | 0.00 | 0.00 | 1000.8 | |
| 20260506211407 | 57 | 0 | 16.5 | 0.0 | 0.00 | 0.00 | 0.00 | 1000.6 | |
| 20260506205550 | 57 | 315 | 42.6 | 0.0 | 0.00 | 0.00 | 0.00 | 1000.6 | |
| 20260506203734 | 58 | 270 | 35.6 | 0.0 | 0.00 | 0.00 | 0.00 | 1000.5 | |
| 20260506201917 | 58 | 315 | 0.0 | 0.0 | 0.00 | 0.00 | 0.00 | 1000.4 | |
| 20260506200101 | 59 | 222 | 4.3 | 0.0 | 0.02 | 0.00 | 0.00 | 999.7 | |
| 20260506194244 | 60 | 0 | 6.1 | 0.0 | 0.01 | 0.00 | 0.00 | 999.6 | |
| 20260506192428 | 62 | 0 | 5.2 | 0.0 | 0.00 | 0.00 | 0.00 | 999.7 | |
| 20260506190611 | 63 | 180 | 25.2 | 0.0 | 0.00 | 0.00 | 0.00 | 999.7 | |
| 20260506184754 | 63 | 222 | 18.2 | 0.0 | 0.00 | 0.00 | 0.00 | 999.2 | |
| 20260506182938 | 64 | 0 | 12.2 | 0.0 | 0.00 | 0.00 | 0.00 | 998.4 | |
| 20260506181122 | 64 | 270 | 19.1 | 0.0 | 0.00 | 0.00 | 0.00 | 994.7 | |
| 20260506175306 | 67 | 90 | 12.2 | 0.0 | 0.00 | 0.00 | 0.00 | 994.7 | |
| 20260506173448 | 70 | 135 | 26.1 | 0.0 | 0.00 | 0.00 | 0.00 | 994.6 | |
| 20260506171630 | 72 | 90 | 18.2 | 0.0 | 0.00 | 0.00 | 0.00 | 994.7 | |
| 20260506165813 | 72 | 90 | 15.6 | 0.0 | 0.00 | 0.00 | 0.00 | 997.7 | |
| 20260506163956 | 72 | 135 | 33.9 | 0.0 | 0.00 | 0.00 | 0.00 | 997.7 | |
| 20260506162140 | 77 | 90 | 27.8 | 0.0 | 0.08 | 0.00 | 0.00 | 997.7 | |
| 20260506160320 | 79 | 90 | 31.3 | 0.0 | 0.08 | 0.00 | 0.00 | 994.9 | |
| 20260506154503 | 68 | 45 | 66.9 | 0.0 | 0.08 | 0.00 | 0.00 | 998.1 | |
| 20260506152646 | 69 | 90 | 29.5 | 0.0 | 0.07 | 0.00 | 0.00 | 998.5 | |
| 20260506150830 | 74 | 90 | 30.4 | 0.0 | 0.00 | 0.00 | 0.00 | 998.6 | |
| 20260506145013 | 73 | 90 | 57.4 | 0.0 | 0.00 | 0.00 | 0.00 | 998.8 | |
| 20260506143157 | 74 | 90 | 4.3 | 0.0 | 0.00 | 0.00 | 0.00 | 998.9 | |
| 20260506141340 | 71 | 0 | 14.8 | 0.0 | 0.00 | 0.00 | 0.00 | 999.1 | |
| 20260506135523 | 70 | 0 | 11.3 | 0.0 | 0.00 | 0.00 | 0.00 | 999.3 | |
| 20260506133707 | 74 | 180 | 18.2 | 0.0 | 0.00 | 0.00 | 0.00 | 999.4 | |
| 20260506131850 | 74 | 270 | 23.5 | 0.0 | 0.00 | 0.00 | 0.00 | 999.3 |